Index of /20260429/WXO-DD/model_rdps/10km/00/063
Name Last modified Size Description
Parent Directory -
20260429T00Z_MSC_RDPS_AbsoluteVorticity_IsbL-0250_RLatLon0.09_PT063H.grib2 2026-04-29 02:58 598K
20260429T00Z_MSC_RDPS_AbsoluteVorticity_IsbL-0500_RLatLon0.09_PT063H.grib2 2026-04-29 02:58 560K
20260429T00Z_MSC_RDPS_AbsoluteVorticity_IsbL-0700_RLatLon0.09_PT063H.grib2 2026-04-29 02:58 611K
20260429T00Z_MSC_RDPS_AbsoluteVorticity_IsbL-0850_RLatLon0.09_PT063H.grib2 2026-04-29 02:58 774K
20260429T00Z_MSC_RDPS_AirTemp_AGL-120m_RLatLon0.09_PT063H.grib2 2026-04-29 02:58 382K
20260429T00Z_MSC_RDPS_AirTemp_AGL-2m_RLatLon0.09_PT063H.grib2 2026-04-29 02:58 628K
20260429T00Z_MSC_RDPS_AirTemp_AGL-40m_RLatLon0.09_PT063H.grib2 2026-04-29 02:58 394K
20260429T00Z_MSC_RDPS_AirTemp_AGL-80m_RLatLon0.09_PT063H.grib2 2026-04-29 02:58 388K
20260429T00Z_MSC_RDPS_AirTemp_IsbL-0001_RLatLon0.09_PT063H.grib2 2026-04-29 02:58 317K
20260429T00Z_MSC_RDPS_AirTemp_IsbL-0005_RLatLon0.09_PT063H.grib2 2026-04-29 02:58 290K
20260429T00Z_MSC_RDPS_AirTemp_IsbL-0010_RLatLon0.09_PT063H.grib2 2026-04-29 02:58 389K
20260429T00Z_MSC_RDPS_AirTemp_IsbL-0020_RLatLon0.09_PT063H.grib2 2026-04-29 02:58 413K
20260429T00Z_MSC_RDPS_AirTemp_IsbL-0030_RLatLon0.09_PT063H.grib2 2026-04-29 02:58 336K
20260429T00Z_MSC_RDPS_AirTemp_IsbL-0050_RLatLon0.09_PT063H.grib2 2026-04-29 02:58 311K
20260429T00Z_MSC_RDPS_AirTemp_IsbL-0100_RLatLon0.09_PT063H.grib2 2026-04-29 02:58 420K
20260429T00Z_MSC_RDPS_AirTemp_IsbL-0150_RLatLon0.09_PT063H.grib2 2026-04-29 02:58 415K
20260429T00Z_MSC_RDPS_AirTemp_IsbL-0175_RLatLon0.09_PT063H.grib2 2026-04-29 02:58 409K
20260429T00Z_MSC_RDPS_AirTemp_IsbL-0200_RLatLon0.09_PT063H.grib2 2026-04-29 02:58 414K
20260429T00Z_MSC_RDPS_AirTemp_IsbL-0225_RLatLon0.09_PT063H.grib2 2026-04-29 02:58 413K
20260429T00Z_MSC_RDPS_AirTemp_IsbL-0250_RLatLon0.09_PT063H.grib2 2026-04-29 02:58 417K
20260429T00Z_MSC_RDPS_AirTemp_IsbL-0275_RLatLon0.09_PT063H.grib2 2026-04-29 02:58 396K
20260429T00Z_MSC_RDPS_AirTemp_IsbL-0300_RLatLon0.09_PT063H.grib2 2026-04-29 02:58 404K
20260429T00Z_MSC_RDPS_AirTemp_IsbL-0350_RLatLon0.09_PT063H.grib2 2026-04-29 02:58 417K
20260429T00Z_MSC_RDPS_AirTemp_IsbL-0400_RLatLon0.09_PT063H.grib2 2026-04-29 02:58 420K
20260429T00Z_MSC_RDPS_AirTemp_IsbL-0450_RLatLon0.09_PT063H.grib2 2026-04-29 02:58 393K
20260429T00Z_MSC_RDPS_AirTemp_IsbL-0500_RLatLon0.09_PT063H.grib2 2026-04-29 02:58 402K
20260429T00Z_MSC_RDPS_AirTemp_IsbL-0550_RLatLon0.09_PT063H.grib2 2026-04-29 02:58 419K
20260429T00Z_MSC_RDPS_AirTemp_IsbL-0600_RLatLon0.09_PT063H.grib2 2026-04-29 02:58 438K
20260429T00Z_MSC_RDPS_AirTemp_IsbL-0650_RLatLon0.09_PT063H.grib2 2026-04-29 02:58 350K
20260429T00Z_MSC_RDPS_AirTemp_IsbL-0700_RLatLon0.09_PT063H.grib2 2026-04-29 02:58 477K
20260429T00Z_MSC_RDPS_AirTemp_IsbL-0750_RLatLon0.09_PT063H.grib2 2026-04-29 02:58 513K
20260429T00Z_MSC_RDPS_AirTemp_IsbL-0800_RLatLon0.09_PT063H.grib2 2026-04-29 02:58 446K
20260429T00Z_MSC_RDPS_AirTemp_IsbL-0850_RLatLon0.09_PT063H.grib2 2026-04-29 02:58 500K
20260429T00Z_MSC_RDPS_AirTemp_IsbL-0875_RLatLon0.09_PT063H.grib2 2026-04-29 02:58 521K
20260429T00Z_MSC_RDPS_AirTemp_IsbL-0900_RLatLon0.09_PT063H.grib2 2026-04-29 02:58 531K
20260429T00Z_MSC_RDPS_AirTemp_IsbL-0925_RLatLon0.09_PT063H.grib2 2026-04-29 02:58 529K
20260429T00Z_MSC_RDPS_AirTemp_IsbL-0950_RLatLon0.09_PT063H.grib2 2026-04-29 02:58 532K
20260429T00Z_MSC_RDPS_AirTemp_IsbL-0970_RLatLon0.09_PT063H.grib2 2026-04-29 02:58 526K
20260429T00Z_MSC_RDPS_AirTemp_IsbL-0985_RLatLon0.09_PT063H.grib2 2026-04-29 02:58 516K
20260429T00Z_MSC_RDPS_AirTemp_IsbL-1000_RLatLon0.09_PT063H.grib2 2026-04-29 02:58 502K
20260429T00Z_MSC_RDPS_AirTemp_IsbL-1015_RLatLon0.09_PT063H.grib2 2026-04-29 02:58 499K
20260429T00Z_MSC_RDPS_Albedo_Sfc_RLatLon0.09_PT063H.grib2 2026-04-29 02:58 160K
20260429T00Z_MSC_RDPS_CAPE_Sfc_RLatLon0.09_PT063H.grib2 2026-04-29 02:58 1.7M
20260429T00Z_MSC_RDPS_CIN_Sfc_RLatLon0.09_PT063H.grib2 2026-04-29 02:58 1.1M
20260429T00Z_MSC_RDPS_CloudWater_EAtm_RLatLon0.09_PT063H.grib2 2026-04-29 02:58 218K
20260429T00Z_MSC_RDPS_ConvectivePrecip-Accum_Sfc_RLatLon0.09_PT063H.grib2 2026-04-29 02:58 1.1M
20260429T00Z_MSC_RDPS_DewPointDepression_AGL-2m_RLatLon0.09_PT063H.grib2 2026-04-29 02:58 412K
20260429T00Z_MSC_RDPS_DewPointDepression_IsbL-0001_RLatLon0.09_PT063H.grib2 2026-04-29 02:58 193
20260429T00Z_MSC_RDPS_DewPointDepression_IsbL-0005_RLatLon0.09_PT063H.grib2 2026-04-29 02:58 193
20260429T00Z_MSC_RDPS_DewPointDepression_IsbL-0010_RLatLon0.09_PT063H.grib2 2026-04-29 02:58 193
20260429T00Z_MSC_RDPS_DewPointDepression_IsbL-0020_RLatLon0.09_PT063H.grib2 2026-04-29 02:58 193
20260429T00Z_MSC_RDPS_DewPointDepression_IsbL-0030_RLatLon0.09_PT063H.grib2 2026-04-29 02:58 193
20260429T00Z_MSC_RDPS_DewPointDepression_IsbL-0050_RLatLon0.09_PT063H.grib2 2026-04-29 02:58 108K
20260429T00Z_MSC_RDPS_DewPointDepression_IsbL-0100_RLatLon0.09_PT063H.grib2 2026-04-29 02:58 126K
20260429T00Z_MSC_RDPS_DewPointDepression_IsbL-0150_RLatLon0.09_PT063H.grib2 2026-04-29 02:58 148K
20260429T00Z_MSC_RDPS_DewPointDepression_IsbL-0175_RLatLon0.09_PT063H.grib2 2026-04-29 02:58 181K
20260429T00Z_MSC_RDPS_DewPointDepression_IsbL-0200_RLatLon0.09_PT063H.grib2 2026-04-29 02:58 217K
20260429T00Z_MSC_RDPS_DewPointDepression_IsbL-0225_RLatLon0.09_PT063H.grib2 2026-04-29 02:58 258K
20260429T00Z_MSC_RDPS_DewPointDepression_IsbL-0250_RLatLon0.09_PT063H.grib2 2026-04-29 02:58 296K
20260429T00Z_MSC_RDPS_DewPointDepression_IsbL-0275_RLatLon0.09_PT063H.grib2 2026-04-29 02:58 303K
20260429T00Z_MSC_RDPS_DewPointDepression_IsbL-0300_RLatLon0.09_PT063H.grib2 2026-04-29 02:58 323K
20260429T00Z_MSC_RDPS_DewPointDepression_IsbL-0350_RLatLon0.09_PT063H.grib2 2026-04-29 02:58 328K
20260429T00Z_MSC_RDPS_DewPointDepression_IsbL-0400_RLatLon0.09_PT063H.grib2 2026-04-29 02:58 340K
20260429T00Z_MSC_RDPS_DewPointDepression_IsbL-0450_RLatLon0.09_PT063H.grib2 2026-04-29 02:58 348K
20260429T00Z_MSC_RDPS_DewPointDepression_IsbL-0500_RLatLon0.09_PT063H.grib2 2026-04-29 02:58 353K
20260429T00Z_MSC_RDPS_DewPointDepression_IsbL-0550_RLatLon0.09_PT063H.grib2 2026-04-29 02:58 362K
20260429T00Z_MSC_RDPS_DewPointDepression_IsbL-0600_RLatLon0.09_PT063H.grib2 2026-04-29 02:58 371K
20260429T00Z_MSC_RDPS_DewPointDepression_IsbL-0650_RLatLon0.09_PT063H.grib2 2026-04-29 02:58 374K
20260429T00Z_MSC_RDPS_DewPointDepression_IsbL-0700_RLatLon0.09_PT063H.grib2 2026-04-29 02:58 380K
20260429T00Z_MSC_RDPS_DewPointDepression_IsbL-0750_RLatLon0.09_PT063H.grib2 2026-04-29 02:58 399K
20260429T00Z_MSC_RDPS_DewPointDepression_IsbL-0800_RLatLon0.09_PT063H.grib2 2026-04-29 02:58 436K
20260429T00Z_MSC_RDPS_DewPointDepression_IsbL-0850_RLatLon0.09_PT063H.grib2 2026-04-29 02:58 471K
20260429T00Z_MSC_RDPS_DewPointDepression_IsbL-0875_RLatLon0.09_PT063H.grib2 2026-04-29 02:58 473K
20260429T00Z_MSC_RDPS_DewPointDepression_IsbL-0900_RLatLon0.09_PT063H.grib2 2026-04-29 02:58 466K
20260429T00Z_MSC_RDPS_DewPointDepression_IsbL-0925_RLatLon0.09_PT063H.grib2 2026-04-29 02:58 452K
20260429T00Z_MSC_RDPS_DewPointDepression_IsbL-0950_RLatLon0.09_PT063H.grib2 2026-04-29 02:58 448K
20260429T00Z_MSC_RDPS_DewPointDepression_IsbL-0970_RLatLon0.09_PT063H.grib2 2026-04-29 02:58 440K
20260429T00Z_MSC_RDPS_DewPointDepression_IsbL-0985_RLatLon0.09_PT063H.grib2 2026-04-29 02:58 437K
20260429T00Z_MSC_RDPS_DewPointDepression_IsbL-1000_RLatLon0.09_PT063H.grib2 2026-04-29 02:58 432K
20260429T00Z_MSC_RDPS_DewPointDepression_IsbL-1015_RLatLon0.09_PT063H.grib2 2026-04-29 02:58 424K
20260429T00Z_MSC_RDPS_DewPoint_AGL-2m_RLatLon0.09_PT063H.grib2 2026-04-29 02:58 401K
20260429T00Z_MSC_RDPS_DownwardLongwaveRadiationFlux-Accum_Sfc_RLatLon0.09_PT063H.grib2 2026-04-29 02:58 407K
20260429T00Z_MSC_RDPS_DownwardShortwaveRadiationFlux-Accum_NTAtm_RLatLon0.09_PT063H.grib2 2026-04-29 02:58 159K
20260429T00Z_MSC_RDPS_DownwardShortwaveRadiationFlux-Accum_Sfc_RLatLon0.09_PT063H.grib2 2026-04-29 02:58 582K
20260429T00Z_MSC_RDPS_FreezingRain-Accum1h_Sfc_RLatLon0.09_PT063H.grib2 2026-04-29 02:58 29K
20260429T00Z_MSC_RDPS_FreezingRain-Accum3h_Sfc_RLatLon0.09_PT063H.grib2 2026-04-29 02:58 43K
20260429T00Z_MSC_RDPS_FreezingRain-Accum_Sfc_RLatLon0.09_PT063H.grib2 2026-04-29 02:58 212K
20260429T00Z_MSC_RDPS_GeopotentialHeight_IsbL-0001_RLatLon0.09_PT063H.grib2 2026-04-29 02:58 317K
20260429T00Z_MSC_RDPS_GeopotentialHeight_IsbL-0005_RLatLon0.09_PT063H.grib2 2026-04-29 02:58 303K
20260429T00Z_MSC_RDPS_GeopotentialHeight_IsbL-0010_RLatLon0.09_PT063H.grib2 2026-04-29 02:58 305K
20260429T00Z_MSC_RDPS_GeopotentialHeight_IsbL-0020_RLatLon0.09_PT063H.grib2 2026-04-29 02:58 303K
20260429T00Z_MSC_RDPS_GeopotentialHeight_IsbL-0030_RLatLon0.09_PT063H.grib2 2026-04-29 02:58 304K
20260429T00Z_MSC_RDPS_GeopotentialHeight_IsbL-0050_RLatLon0.09_PT063H.grib2 2026-04-29 02:58 306K
20260429T00Z_MSC_RDPS_GeopotentialHeight_IsbL-0100_RLatLon0.09_PT063H.grib2 2026-04-29 02:58 282K
20260429T00Z_MSC_RDPS_GeopotentialHeight_IsbL-0150_RLatLon0.09_PT063H.grib2 2026-04-29 02:58 226K
20260429T00Z_MSC_RDPS_GeopotentialHeight_IsbL-0175_RLatLon0.09_PT063H.grib2 2026-04-29 02:58 229K
20260429T00Z_MSC_RDPS_GeopotentialHeight_IsbL-0200_RLatLon0.09_PT063H.grib2 2026-04-29 02:58 262K
20260429T00Z_MSC_RDPS_GeopotentialHeight_IsbL-0225_RLatLon0.09_PT063H.grib2 2026-04-29 02:58 264K
20260429T00Z_MSC_RDPS_GeopotentialHeight_IsbL-0250_RLatLon0.09_PT063H.grib2 2026-04-29 02:58 265K
20260429T00Z_MSC_RDPS_GeopotentialHeight_IsbL-0275_RLatLon0.09_PT063H.grib2 2026-04-29 02:58 264K
20260429T00Z_MSC_RDPS_GeopotentialHeight_IsbL-0300_RLatLon0.09_PT063H.grib2 2026-04-29 02:58 233K
20260429T00Z_MSC_RDPS_GeopotentialHeight_IsbL-0350_RLatLon0.09_PT063H.grib2 2026-04-29 02:58 230K
20260429T00Z_MSC_RDPS_GeopotentialHeight_IsbL-0400_RLatLon0.09_PT063H.grib2 2026-04-29 02:58 227K
20260429T00Z_MSC_RDPS_GeopotentialHeight_IsbL-0450_RLatLon0.09_PT063H.grib2 2026-04-29 02:58 295K
20260429T00Z_MSC_RDPS_GeopotentialHeight_IsbL-0500_RLatLon0.09_PT063H.grib2 2026-04-29 02:58 290K
20260429T00Z_MSC_RDPS_GeopotentialHeight_IsbL-0550_RLatLon0.09_PT063H.grib2 2026-04-29 02:58 286K
20260429T00Z_MSC_RDPS_GeopotentialHeight_IsbL-0600_RLatLon0.09_PT063H.grib2 2026-04-29 02:58 282K
20260429T00Z_MSC_RDPS_GeopotentialHeight_IsbL-0650_RLatLon0.09_PT063H.grib2 2026-04-29 02:58 253K
20260429T00Z_MSC_RDPS_GeopotentialHeight_IsbL-0700_RLatLon0.09_PT063H.grib2 2026-04-29 02:58 252K
20260429T00Z_MSC_RDPS_GeopotentialHeight_IsbL-0750_RLatLon0.09_PT063H.grib2 2026-04-29 02:58 335K
20260429T00Z_MSC_RDPS_GeopotentialHeight_IsbL-0800_RLatLon0.09_PT063H.grib2 2026-04-29 02:58 343K
20260429T00Z_MSC_RDPS_GeopotentialHeight_IsbL-0850_RLatLon0.09_PT063H.grib2 2026-04-29 02:58 355K
20260429T00Z_MSC_RDPS_GeopotentialHeight_IsbL-0875_RLatLon0.09_PT063H.grib2 2026-04-29 02:58 358K
20260429T00Z_MSC_RDPS_GeopotentialHeight_IsbL-0900_RLatLon0.09_PT063H.grib2 2026-04-29 02:58 362K
20260429T00Z_MSC_RDPS_GeopotentialHeight_IsbL-0925_RLatLon0.09_PT063H.grib2 2026-04-29 02:58 363K
20260429T00Z_MSC_RDPS_GeopotentialHeight_IsbL-0950_RLatLon0.09_PT063H.grib2 2026-04-29 02:58 369K
20260429T00Z_MSC_RDPS_GeopotentialHeight_IsbL-0970_RLatLon0.09_PT063H.grib2 2026-04-29 02:58 374K
20260429T00Z_MSC_RDPS_GeopotentialHeight_IsbL-0985_RLatLon0.09_PT063H.grib2 2026-04-29 02:58 384K
20260429T00Z_MSC_RDPS_GeopotentialHeight_IsbL-1000_RLatLon0.09_PT063H.grib2 2026-04-29 02:58 397K
20260429T00Z_MSC_RDPS_GeopotentialHeight_IsbL-1015_RLatLon0.09_PT063H.grib2 2026-04-29 02:58 413K
20260429T00Z_MSC_RDPS_Humidex_Sfc_RLatLon0.09_PT063H.grib2 2026-04-29 02:58 2.4M
20260429T00Z_MSC_RDPS_IcePellets-Accum1h_Sfc_RLatLon0.09_PT063H.grib2 2026-04-29 02:58 7.1K
20260429T00Z_MSC_RDPS_IcePellets-Accum3h_Sfc_RLatLon0.09_PT063H.grib2 2026-04-29 02:58 9.0K
20260429T00Z_MSC_RDPS_IcePellets-Accum_Sfc_RLatLon0.09_PT063H.grib2 2026-04-29 02:58 30K
20260429T00Z_MSC_RDPS_KIndex_Sfc_RLatLon0.09_PT063H.grib2 2026-04-29 02:58 2.5M
20260429T00Z_MSC_RDPS_LatentHeatNetFlux_Sfc_RLatLon0.09_PT063H.grib2 2026-04-29 02:58 376K
20260429T00Z_MSC_RDPS_LiftedIndex-MU-VT_IsbL-0500_RLatLon0.09_PT063H.grib2 2026-04-29 02:58 2.4M
20260429T00Z_MSC_RDPS_NetLongwaveRadiationFlux-Accum_Sfc_RLatLon0.09_PT063H.grib2 2026-04-29 02:58 580K
20260429T00Z_MSC_RDPS_NetShortwaveRadiationFlux-Accum_Sfc_RLatLon0.09_PT063H.grib2 2026-04-29 02:58 584K
20260429T00Z_MSC_RDPS_PlanetaryBoundaryLayerHeight_Sfc_RLatLon0.09_PT063H.grib2 2026-04-29 02:58 1.2M
20260429T00Z_MSC_RDPS_Precip-Accum1h_Sfc_RLatLon0.09_PT063H.grib2 2026-04-29 02:58 1.2M
20260429T00Z_MSC_RDPS_Precip-Accum3h_Sfc_RLatLon0.09_PT063H.grib2 2026-04-29 02:58 1.3M
20260429T00Z_MSC_RDPS_Precip-Accum_Sfc_RLatLon0.09_PT063H.grib2 2026-04-29 02:58 2.1M
20260429T00Z_MSC_RDPS_PrecipRate_Sfc_RLatLon0.09_PT063H.grib2 2026-04-29 02:58 170K
20260429T00Z_MSC_RDPS_PrecipType-Instant_Sfc_RLatLon0.09_PT063H.grib2 2026-04-29 02:58 546K
20260429T00Z_MSC_RDPS_Pressure-Trend3h_Sfc_RLatLon0.09_PT063H.grib2 2026-04-29 02:58 1.2M
20260429T00Z_MSC_RDPS_Pressure_MSL_RLatLon0.09_PT063H.grib2 2026-04-29 02:58 327K
20260429T00Z_MSC_RDPS_Pressure_PVU-1.5_RLatLon0.09_PT063H.grib2 2026-04-29 02:58 2.3M
20260429T00Z_MSC_RDPS_Pressure_PVU-1_RLatLon0.09_PT063H.grib2 2026-04-29 02:58 2.4M
20260429T00Z_MSC_RDPS_Pressure_PVU-2_RLatLon0.09_PT063H.grib2 2026-04-29 02:58 2.4M
20260429T00Z_MSC_RDPS_Pressure_Sfc_RLatLon0.09_PT063H.grib2 2026-04-29 02:58 499K
20260429T00Z_MSC_RDPS_RadiativeTemp_Sfc_RLatLon0.09_PT063H.grib2 2026-04-29 02:58 321K
20260429T00Z_MSC_RDPS_Rain-Accum1h_Sfc_RLatLon0.09_PT063H.grib2 2026-04-29 02:58 577K
20260429T00Z_MSC_RDPS_Rain-Accum3h_Sfc_RLatLon0.09_PT063H.grib2 2026-04-29 02:58 659K
20260429T00Z_MSC_RDPS_Rain-Accum_Sfc_RLatLon0.09_PT063H.grib2 2026-04-29 02:58 1.7M
20260429T00Z_MSC_RDPS_RelativeHumidity_AGL-2m_RLatLon0.09_PT063H.grib2 2026-04-29 02:58 1.0M
20260429T00Z_MSC_RDPS_RelativeHumidity_IsbL-0010_RLatLon0.09_PT063H.grib2 2026-04-29 02:58 633K
20260429T00Z_MSC_RDPS_RelativeHumidity_IsbL-0020_RLatLon0.09_PT063H.grib2 2026-04-29 02:58 675K
20260429T00Z_MSC_RDPS_RelativeHumidity_IsbL-0030_RLatLon0.09_PT063H.grib2 2026-04-29 02:58 605K
20260429T00Z_MSC_RDPS_RelativeHumidity_IsbL-0050_RLatLon0.09_PT063H.grib2 2026-04-29 02:58 311K
20260429T00Z_MSC_RDPS_RelativeHumidity_IsbL-0100_RLatLon0.09_PT063H.grib2 2026-04-29 02:58 274K
20260429T00Z_MSC_RDPS_RelativeHumidity_IsbL-0150_RLatLon0.09_PT063H.grib2 2026-04-29 02:58 393K
20260429T00Z_MSC_RDPS_RelativeHumidity_IsbL-0175_RLatLon0.09_PT063H.grib2 2026-04-29 02:58 463K
20260429T00Z_MSC_RDPS_RelativeHumidity_IsbL-0200_RLatLon0.09_PT063H.grib2 2026-04-29 02:58 550K
20260429T00Z_MSC_RDPS_RelativeHumidity_IsbL-0225_RLatLon0.09_PT063H.grib2 2026-04-29 02:58 622K
20260429T00Z_MSC_RDPS_RelativeHumidity_IsbL-0250_RLatLon0.09_PT063H.grib2 2026-04-29 02:58 689K
20260429T00Z_MSC_RDPS_RelativeHumidity_IsbL-0275_RLatLon0.09_PT063H.grib2 2026-04-29 02:58 713K
20260429T00Z_MSC_RDPS_RelativeHumidity_IsbL-0300_RLatLon0.09_PT063H.grib2 2026-04-29 02:58 758K
20260429T00Z_MSC_RDPS_RelativeHumidity_IsbL-0350_RLatLon0.09_PT063H.grib2 2026-04-29 02:58 775K
20260429T00Z_MSC_RDPS_RelativeHumidity_IsbL-0400_RLatLon0.09_PT063H.grib2 2026-04-29 02:58 788K
20260429T00Z_MSC_RDPS_RelativeHumidity_IsbL-0450_RLatLon0.09_PT063H.grib2 2026-04-29 02:58 798K
20260429T00Z_MSC_RDPS_RelativeHumidity_IsbL-0500_RLatLon0.09_PT063H.grib2 2026-04-29 02:58 803K
20260429T00Z_MSC_RDPS_RelativeHumidity_IsbL-0550_RLatLon0.09_PT063H.grib2 2026-04-29 02:58 819K
20260429T00Z_MSC_RDPS_RelativeHumidity_IsbL-0600_RLatLon0.09_PT063H.grib2 2026-04-29 02:58 836K
20260429T00Z_MSC_RDPS_RelativeHumidity_IsbL-0650_RLatLon0.09_PT063H.grib2 2026-04-29 02:58 845K
20260429T00Z_MSC_RDPS_RelativeHumidity_IsbL-0700_RLatLon0.09_PT063H.grib2 2026-04-29 02:58 873K
20260429T00Z_MSC_RDPS_RelativeHumidity_IsbL-0750_RLatLon0.09_PT063H.grib2 2026-04-29 02:58 913K
20260429T00Z_MSC_RDPS_RelativeHumidity_IsbL-0800_RLatLon0.09_PT063H.grib2 2026-04-29 02:58 1.0M
20260429T00Z_MSC_RDPS_RelativeHumidity_IsbL-0850_RLatLon0.09_PT063H.grib2 2026-04-29 02:58 1.0M
20260429T00Z_MSC_RDPS_RelativeHumidity_IsbL-0875_RLatLon0.09_PT063H.grib2 2026-04-29 02:58 1.1M
20260429T00Z_MSC_RDPS_RelativeHumidity_IsbL-0900_RLatLon0.09_PT063H.grib2 2026-04-29 02:58 1.1M
20260429T00Z_MSC_RDPS_RelativeHumidity_IsbL-0925_RLatLon0.09_PT063H.grib2 2026-04-29 02:58 1.1M
20260429T00Z_MSC_RDPS_RelativeHumidity_IsbL-0950_RLatLon0.09_PT063H.grib2 2026-04-29 02:58 1.1M
20260429T00Z_MSC_RDPS_RelativeHumidity_IsbL-0970_RLatLon0.09_PT063H.grib2 2026-04-29 02:58 1.1M
20260429T00Z_MSC_RDPS_RelativeHumidity_IsbL-0985_RLatLon0.09_PT063H.grib2 2026-04-29 02:58 1.0M
20260429T00Z_MSC_RDPS_RelativeHumidity_IsbL-1000_RLatLon0.09_PT063H.grib2 2026-04-29 02:58 1.0M
20260429T00Z_MSC_RDPS_RelativeHumidity_IsbL-1015_RLatLon0.09_PT063H.grib2 2026-04-29 02:58 1.0M
20260429T00Z_MSC_RDPS_Runoff-Accum_Sfc_RLatLon0.09_PT063H.grib2 2026-04-29 02:58 59K
20260429T00Z_MSC_RDPS_SWEATIndex_Sfc_RLatLon0.09_PT063H.grib2 2026-04-29 02:58 2.4M
20260429T00Z_MSC_RDPS_SeeingIndex_EAtm_RLatLon0.09_PT063H.grib2 2026-04-29 02:58 1.0M
20260429T00Z_MSC_RDPS_SensibleHeatNetFlux_Sfc_RLatLon0.09_PT063H.grib2 2026-04-29 02:58 352K
20260429T00Z_MSC_RDPS_ShowalterIndex_IsbL-0500_RLatLon0.09_PT063H.grib2 2026-04-29 02:58 2.6M
20260429T00Z_MSC_RDPS_SkyTransparencyIndex_EAtm_RLatLon0.09_PT063H.grib2 2026-04-29 02:58 703K
20260429T00Z_MSC_RDPS_Snow-Accum1h_Sfc_RLatLon0.09_PT063H.grib2 2026-04-29 02:58 487K
20260429T00Z_MSC_RDPS_Snow-Accum3h_Sfc_RLatLon0.09_PT063H.grib2 2026-04-29 02:58 456K
20260429T00Z_MSC_RDPS_Snow-Accum_Sfc_RLatLon0.09_PT063H.grib2 2026-04-29 02:58 775K
20260429T00Z_MSC_RDPS_SnowDensity_Sfc_RLatLon0.09_PT063H.grib2 2026-04-29 02:58 182K
20260429T00Z_MSC_RDPS_SnowDepth_Sfc_RLatLon0.09_PT063H.grib2 2026-04-29 02:58 677K
20260429T00Z_MSC_RDPS_SoilTemp_DBS-0to10cm_RLatLon0.09_PT063H.grib2 2026-04-29 02:58 241K
20260429T00Z_MSC_RDPS_SoilTemp_Sfc_RLatLon0.09_PT063H.grib2 2026-04-29 02:58 286K
20260429T00Z_MSC_RDPS_SoilVolumetricIceContent_Sfc_RLatLon0.09_PT063H.grib2 2026-04-29 02:58 163K
20260429T00Z_MSC_RDPS_SoilVolumetricWaterContent_DBS-0to10cm_RLatLon0.09_PT063H.grib2 2026-04-29 02:58 270K
20260429T00Z_MSC_RDPS_SoilVolumetricWaterContent_DBS-0to1cm_RLatLon0.09_PT063H.grib2 2026-04-29 02:58 339K
20260429T00Z_MSC_RDPS_SpecificHumidity_AGL-120m_RLatLon0.09_PT063H.grib2 2026-04-29 02:58 495K
20260429T00Z_MSC_RDPS_SpecificHumidity_AGL-2m_RLatLon0.09_PT063H.grib2 2026-04-29 02:58 664K
20260429T00Z_MSC_RDPS_SpecificHumidity_AGL-40m_RLatLon0.09_PT063H.grib2 2026-04-29 02:58 501K
20260429T00Z_MSC_RDPS_SpecificHumidity_AGL-80m_RLatLon0.09_PT063H.grib2 2026-04-29 02:58 498K
20260429T00Z_MSC_RDPS_SpecificHumidity_IsbL-0001_RLatLon0.09_PT063H.grib2 2026-04-29 02:58 367K
20260429T00Z_MSC_RDPS_SpecificHumidity_IsbL-0005_RLatLon0.09_PT063H.grib2 2026-04-29 02:58 356K
20260429T00Z_MSC_RDPS_SpecificHumidity_IsbL-0010_RLatLon0.09_PT063H.grib2 2026-04-29 02:58 392K
20260429T00Z_MSC_RDPS_SpecificHumidity_IsbL-0020_RLatLon0.09_PT063H.grib2 2026-04-29 02:58 380K
20260429T00Z_MSC_RDPS_SpecificHumidity_IsbL-0030_RLatLon0.09_PT063H.grib2 2026-04-29 02:58 364K
20260429T00Z_MSC_RDPS_SpecificHumidity_IsbL-0050_RLatLon0.09_PT063H.grib2 2026-04-29 02:58 443K
20260429T00Z_MSC_RDPS_SpecificHumidity_IsbL-0100_RLatLon0.09_PT063H.grib2 2026-04-29 02:58 415K
20260429T00Z_MSC_RDPS_SpecificHumidity_IsbL-0150_RLatLon0.09_PT063H.grib2 2026-04-29 02:58 439K
20260429T00Z_MSC_RDPS_SpecificHumidity_IsbL-0175_RLatLon0.09_PT063H.grib2 2026-04-29 02:58 421K
20260429T00Z_MSC_RDPS_SpecificHumidity_IsbL-0200_RLatLon0.09_PT063H.grib2 2026-04-29 02:58 440K
20260429T00Z_MSC_RDPS_SpecificHumidity_IsbL-0225_RLatLon0.09_PT063H.grib2 2026-04-29 02:58 463K
20260429T00Z_MSC_RDPS_SpecificHumidity_IsbL-0250_RLatLon0.09_PT063H.grib2 2026-04-29 02:58 510K
20260429T00Z_MSC_RDPS_SpecificHumidity_IsbL-0275_RLatLon0.09_PT063H.grib2 2026-04-29 02:58 469K
20260429T00Z_MSC_RDPS_SpecificHumidity_IsbL-0300_RLatLon0.09_PT063H.grib2 2026-04-29 02:58 444K
20260429T00Z_MSC_RDPS_SpecificHumidity_IsbL-0350_RLatLon0.09_PT063H.grib2 2026-04-29 02:58 435K
20260429T00Z_MSC_RDPS_SpecificHumidity_IsbL-0400_RLatLon0.09_PT063H.grib2 2026-04-29 02:58 513K
20260429T00Z_MSC_RDPS_SpecificHumidity_IsbL-0450_RLatLon0.09_PT063H.grib2 2026-04-29 02:58 569K
20260429T00Z_MSC_RDPS_SpecificHumidity_IsbL-0500_RLatLon0.09_PT063H.grib2 2026-04-29 02:58 504K
20260429T00Z_MSC_RDPS_SpecificHumidity_IsbL-0550_RLatLon0.09_PT063H.grib2 2026-04-29 02:58 576K
20260429T00Z_MSC_RDPS_SpecificHumidity_IsbL-0600_RLatLon0.09_PT063H.grib2 2026-04-29 02:58 625K
20260429T00Z_MSC_RDPS_SpecificHumidity_IsbL-0650_RLatLon0.09_PT063H.grib2 2026-04-29 02:58 540K
20260429T00Z_MSC_RDPS_SpecificHumidity_IsbL-0700_RLatLon0.09_PT063H.grib2 2026-04-29 02:58 580K
20260429T00Z_MSC_RDPS_SpecificHumidity_IsbL-0750_RLatLon0.09_PT063H.grib2 2026-04-29 02:58 634K
20260429T00Z_MSC_RDPS_SpecificHumidity_IsbL-0800_RLatLon0.09_PT063H.grib2 2026-04-29 02:58 710K
20260429T00Z_MSC_RDPS_SpecificHumidity_IsbL-0850_RLatLon0.09_PT063H.grib2 2026-04-29 02:58 801K
20260429T00Z_MSC_RDPS_SpecificHumidity_IsbL-0875_RLatLon0.09_PT063H.grib2 2026-04-29 02:58 829K
20260429T00Z_MSC_RDPS_SpecificHumidity_IsbL-0900_RLatLon0.09_PT063H.grib2 2026-04-29 02:58 843K
20260429T00Z_MSC_RDPS_SpecificHumidity_IsbL-0925_RLatLon0.09_PT063H.grib2 2026-04-29 02:58 846K
20260429T00Z_MSC_RDPS_SpecificHumidity_IsbL-0950_RLatLon0.09_PT063H.grib2 2026-04-29 02:58 708K
20260429T00Z_MSC_RDPS_SpecificHumidity_IsbL-0970_RLatLon0.09_PT063H.grib2 2026-04-29 02:58 699K
20260429T00Z_MSC_RDPS_SpecificHumidity_IsbL-0985_RLatLon0.09_PT063H.grib2 2026-04-29 02:58 692K
20260429T00Z_MSC_RDPS_SpecificHumidity_IsbL-1000_RLatLon0.09_PT063H.grib2 2026-04-29 02:58 684K
20260429T00Z_MSC_RDPS_SpecificHumidity_IsbL-1015_RLatLon0.09_PT063H.grib2 2026-04-29 02:58 673K
20260429T00Z_MSC_RDPS_SpecificHumidity_Sfc_RLatLon0.09_PT063H.grib2 2026-04-29 02:58 316K
20260429T00Z_MSC_RDPS_StormRelativeHelicity_EtaL-10000_RLatLon0.09_PT063H.grib2 2026-04-29 02:58 1.1M
20260429T00Z_MSC_RDPS_StormSeverityIndex_EtaL-10000_RLatLon0.09_PT063H.grib2 2026-04-29 02:58 1.1M
20260429T00Z_MSC_RDPS_Thickness_IsbL-0850to0700_RLatLon0.09_PT063H.grib2 2026-04-29 02:58 176K
20260429T00Z_MSC_RDPS_Thickness_IsbL-1000to0500_RLatLon0.09_PT063H.grib2 2026-04-29 02:58 198K
20260429T00Z_MSC_RDPS_Thickness_IsbL-1000to0850_RLatLon0.09_PT063H.grib2 2026-04-29 02:58 264K
20260429T00Z_MSC_RDPS_TotalCloudCover_Sfc_RLatLon0.09_PT063H.grib2 2026-04-29 02:58 646K
20260429T00Z_MSC_RDPS_TotalTotalsIndex_Sfc_RLatLon0.09_PT063H.grib2 2026-04-29 02:58 2.4M
20260429T00Z_MSC_RDPS_UVIndex-ClearSky_Sfc_RLatLon0.09_PT063H.grib2 2026-04-29 02:58 182K
20260429T00Z_MSC_RDPS_UVIndex_Sfc_RLatLon0.09_PT063H.grib2 2026-04-29 02:58 412K
20260429T00Z_MSC_RDPS_UpwardLongwaveRadiationFlux_NTAtm_RLatLon0.09_PT063H.grib2 2026-04-29 02:58 481K
20260429T00Z_MSC_RDPS_UpwardShortwaveRadiationFlux_NTAtm_RLatLon0.09_PT063H.grib2 2026-04-29 02:58 458K
20260429T00Z_MSC_RDPS_VerticalVelocity_IsbL-0250_RLatLon0.09_PT063H.grib2 2026-04-29 02:58 544K
20260429T00Z_MSC_RDPS_VerticalVelocity_IsbL-0500_RLatLon0.09_PT063H.grib2 2026-04-29 02:58 539K
20260429T00Z_MSC_RDPS_VerticalVelocity_IsbL-0700_RLatLon0.09_PT063H.grib2 2026-04-29 02:58 614K
20260429T00Z_MSC_RDPS_VerticalVelocity_IsbL-0850_RLatLon0.09_PT063H.grib2 2026-04-29 02:58 703K
20260429T00Z_MSC_RDPS_VerticalWindShear_EtaL-6500_RLatLon0.09_PT063H.grib2 2026-04-29 02:58 1.2M
20260429T00Z_MSC_RDPS_WindChill_Sfc_RLatLon0.09_PT063H.grib2 2026-04-29 02:58 1.2M
20260429T00Z_MSC_RDPS_WindDir_AGL-10m_RLatLon0.09_PT063H.grib2 2026-04-29 02:58 960K
20260429T00Z_MSC_RDPS_WindDir_AGL-120m_RLatLon0.09_PT063H.grib2 2026-04-29 02:58 603K
20260429T00Z_MSC_RDPS_WindDir_AGL-40m_RLatLon0.09_PT063H.grib2 2026-04-29 02:58 628K
20260429T00Z_MSC_RDPS_WindDir_AGL-80m_RLatLon0.09_PT063H.grib2 2026-04-29 02:58 614K
20260429T00Z_MSC_RDPS_WindDir_IsbL-0001_RLatLon0.09_PT063H.grib2 2026-04-29 02:58 308K
20260429T00Z_MSC_RDPS_WindDir_IsbL-0005_RLatLon0.09_PT063H.grib2 2026-04-29 02:58 379K
20260429T00Z_MSC_RDPS_WindDir_IsbL-0010_RLatLon0.09_PT063H.grib2 2026-04-29 02:58 382K
20260429T00Z_MSC_RDPS_WindDir_IsbL-0020_RLatLon0.09_PT063H.grib2 2026-04-29 02:58 421K
20260429T00Z_MSC_RDPS_WindDir_IsbL-0030_RLatLon0.09_PT063H.grib2 2026-04-29 02:58 421K
20260429T00Z_MSC_RDPS_WindDir_IsbL-0050_RLatLon0.09_PT063H.grib2 2026-04-29 02:58 425K
20260429T00Z_MSC_RDPS_WindDir_IsbL-0100_RLatLon0.09_PT063H.grib2 2026-04-29 02:58 415K
20260429T00Z_MSC_RDPS_WindDir_IsbL-0150_RLatLon0.09_PT063H.grib2 2026-04-29 02:58 417K
20260429T00Z_MSC_RDPS_WindDir_IsbL-0175_RLatLon0.09_PT063H.grib2 2026-04-29 02:58 441K
20260429T00Z_MSC_RDPS_WindDir_IsbL-0200_RLatLon0.09_PT063H.grib2 2026-04-29 02:58 452K
20260429T00Z_MSC_RDPS_WindDir_IsbL-0225_RLatLon0.09_PT063H.grib2 2026-04-29 02:58 453K
20260429T00Z_MSC_RDPS_WindDir_IsbL-0250_RLatLon0.09_PT063H.grib2 2026-04-29 02:58 451K
20260429T00Z_MSC_RDPS_WindDir_IsbL-0275_RLatLon0.09_PT063H.grib2 2026-04-29 02:58 476K
20260429T00Z_MSC_RDPS_WindDir_IsbL-0300_RLatLon0.09_PT063H.grib2 2026-04-29 02:58 475K
20260429T00Z_MSC_RDPS_WindDir_IsbL-0350_RLatLon0.09_PT063H.grib2 2026-04-29 02:58 497K
20260429T00Z_MSC_RDPS_WindDir_IsbL-0400_RLatLon0.09_PT063H.grib2 2026-04-29 02:58 508K
20260429T00Z_MSC_RDPS_WindDir_IsbL-0450_RLatLon0.09_PT063H.grib2 2026-04-29 02:58 519K
20260429T00Z_MSC_RDPS_WindDir_IsbL-0500_RLatLon0.09_PT063H.grib2 2026-04-29 02:58 536K
20260429T00Z_MSC_RDPS_WindDir_IsbL-0550_RLatLon0.09_PT063H.grib2 2026-04-29 02:58 551K
20260429T00Z_MSC_RDPS_WindDir_IsbL-0600_RLatLon0.09_PT063H.grib2 2026-04-29 02:58 575K
20260429T00Z_MSC_RDPS_WindDir_IsbL-0650_RLatLon0.09_PT063H.grib2 2026-04-29 02:58 617K
20260429T00Z_MSC_RDPS_WindDir_IsbL-0700_RLatLon0.09_PT063H.grib2 2026-04-29 02:58 658K
20260429T00Z_MSC_RDPS_WindDir_IsbL-0750_RLatLon0.09_PT063H.grib2 2026-04-29 02:58 698K
20260429T00Z_MSC_RDPS_WindDir_IsbL-0800_RLatLon0.09_PT063H.grib2 2026-04-29 02:58 761K
20260429T00Z_MSC_RDPS_WindDir_IsbL-0850_RLatLon0.09_PT063H.grib2 2026-04-29 02:58 838K
20260429T00Z_MSC_RDPS_WindDir_IsbL-0875_RLatLon0.09_PT063H.grib2 2026-04-29 02:58 870K
20260429T00Z_MSC_RDPS_WindDir_IsbL-0900_RLatLon0.09_PT063H.grib2 2026-04-29 02:58 889K
20260429T00Z_MSC_RDPS_WindDir_IsbL-0925_RLatLon0.09_PT063H.grib2 2026-04-29 02:58 899K
20260429T00Z_MSC_RDPS_WindDir_IsbL-0950_RLatLon0.09_PT063H.grib2 2026-04-29 02:58 900K
20260429T00Z_MSC_RDPS_WindDir_IsbL-0970_RLatLon0.09_PT063H.grib2 2026-04-29 02:58 910K
20260429T00Z_MSC_RDPS_WindDir_IsbL-0985_RLatLon0.09_PT063H.grib2 2026-04-29 02:58 920K
20260429T00Z_MSC_RDPS_WindDir_IsbL-1000_RLatLon0.09_PT063H.grib2 2026-04-29 02:58 934K
20260429T00Z_MSC_RDPS_WindDir_IsbL-1015_RLatLon0.09_PT063H.grib2 2026-04-29 02:58 951K
20260429T00Z_MSC_RDPS_WindGust-Max_AGL-10m_RLatLon0.09_PT063H.grib2 2026-04-29 02:58 1.0M
20260429T00Z_MSC_RDPS_WindGust-Min_AGL-10m_RLatLon0.09_PT063H.grib2 2026-04-29 02:58 1.0M
20260429T00Z_MSC_RDPS_WindGust_AGL-10m_RLatLon0.09_PT063H.grib2 2026-04-29 02:58 1.0M
20260429T00Z_MSC_RDPS_WindSpeed_AGL-10m_RLatLon0.09_PT063H.grib2 2026-04-29 02:58 836K
20260429T00Z_MSC_RDPS_WindSpeed_AGL-120m_RLatLon0.09_PT063H.grib2 2026-04-29 02:58 536K
20260429T00Z_MSC_RDPS_WindSpeed_AGL-40m_RLatLon0.09_PT063H.grib2 2026-04-29 02:58 665K
20260429T00Z_MSC_RDPS_WindSpeed_AGL-80m_RLatLon0.09_PT063H.grib2 2026-04-29 02:58 535K
20260429T00Z_MSC_RDPS_WindSpeed_IsbL-0001_RLatLon0.09_PT063H.grib2 2026-04-29 02:58 335K
20260429T00Z_MSC_RDPS_WindSpeed_IsbL-0005_RLatLon0.09_PT063H.grib2 2026-04-29 02:58 383K
20260429T00Z_MSC_RDPS_WindSpeed_IsbL-0010_RLatLon0.09_PT063H.grib2 2026-04-29 02:58 306K
20260429T00Z_MSC_RDPS_WindSpeed_IsbL-0020_RLatLon0.09_PT063H.grib2 2026-04-29 02:58 325K
20260429T00Z_MSC_RDPS_WindSpeed_IsbL-0030_RLatLon0.09_PT063H.grib2 2026-04-29 02:58 418K
20260429T00Z_MSC_RDPS_WindSpeed_IsbL-0050_RLatLon0.09_PT063H.grib2 2026-04-29 02:58 348K
20260429T00Z_MSC_RDPS_WindSpeed_IsbL-0100_RLatLon0.09_PT063H.grib2 2026-04-29 02:58 471K
20260429T00Z_MSC_RDPS_WindSpeed_IsbL-0150_RLatLon0.09_PT063H.grib2 2026-04-29 02:58 375K
20260429T00Z_MSC_RDPS_WindSpeed_IsbL-0175_RLatLon0.09_PT063H.grib2 2026-04-29 02:58 422K
20260429T00Z_MSC_RDPS_WindSpeed_IsbL-0200_RLatLon0.09_PT063H.grib2 2026-04-29 02:58 438K
20260429T00Z_MSC_RDPS_WindSpeed_IsbL-0225_RLatLon0.09_PT063H.grib2 2026-04-29 02:58 445K
20260429T00Z_MSC_RDPS_WindSpeed_IsbL-0250_RLatLon0.09_PT063H.grib2 2026-04-29 02:58 447K
20260429T00Z_MSC_RDPS_WindSpeed_IsbL-0275_RLatLon0.09_PT063H.grib2 2026-04-29 02:58 462K
20260429T00Z_MSC_RDPS_WindSpeed_IsbL-0300_RLatLon0.09_PT063H.grib2 2026-04-29 02:58 461K
20260429T00Z_MSC_RDPS_WindSpeed_IsbL-0350_RLatLon0.09_PT063H.grib2 2026-04-29 02:58 472K
20260429T00Z_MSC_RDPS_WindSpeed_IsbL-0400_RLatLon0.09_PT063H.grib2 2026-04-29 02:58 474K
20260429T00Z_MSC_RDPS_WindSpeed_IsbL-0450_RLatLon0.09_PT063H.grib2 2026-04-29 02:58 458K
20260429T00Z_MSC_RDPS_WindSpeed_IsbL-0500_RLatLon0.09_PT063H.grib2 2026-04-29 02:58 458K
20260429T00Z_MSC_RDPS_WindSpeed_IsbL-0550_RLatLon0.09_PT063H.grib2 2026-04-29 02:58 457K
20260429T00Z_MSC_RDPS_WindSpeed_IsbL-0600_RLatLon0.09_PT063H.grib2 2026-04-29 02:58 582K
20260429T00Z_MSC_RDPS_WindSpeed_IsbL-0650_RLatLon0.09_PT063H.grib2 2026-04-29 02:58 605K
20260429T00Z_MSC_RDPS_WindSpeed_IsbL-0700_RLatLon0.09_PT063H.grib2 2026-04-29 02:58 628K
20260429T00Z_MSC_RDPS_WindSpeed_IsbL-0750_RLatLon0.09_PT063H.grib2 2026-04-29 02:58 700K
20260429T00Z_MSC_RDPS_WindSpeed_IsbL-0800_RLatLon0.09_PT063H.grib2 2026-04-29 02:58 747K
20260429T00Z_MSC_RDPS_WindSpeed_IsbL-0850_RLatLon0.09_PT063H.grib2 2026-04-29 02:58 809K
20260429T00Z_MSC_RDPS_WindSpeed_IsbL-0875_RLatLon0.09_PT063H.grib2 2026-04-29 02:58 831K
20260429T00Z_MSC_RDPS_WindSpeed_IsbL-0900_RLatLon0.09_PT063H.grib2 2026-04-29 02:58 848K
20260429T00Z_MSC_RDPS_WindSpeed_IsbL-0925_RLatLon0.09_PT063H.grib2 2026-04-29 02:58 859K
20260429T00Z_MSC_RDPS_WindSpeed_IsbL-0950_RLatLon0.09_PT063H.grib2 2026-04-29 02:58 856K
20260429T00Z_MSC_RDPS_WindSpeed_IsbL-0970_RLatLon0.09_PT063H.grib2 2026-04-29 02:58 854K
20260429T00Z_MSC_RDPS_WindSpeed_IsbL-0985_RLatLon0.09_PT063H.grib2 2026-04-29 02:58 849K
20260429T00Z_MSC_RDPS_WindSpeed_IsbL-1000_RLatLon0.09_PT063H.grib2 2026-04-29 02:58 845K
20260429T00Z_MSC_RDPS_WindSpeed_IsbL-1015_RLatLon0.09_PT063H.grib2 2026-04-29 02:58 836K
20260429T00Z_MSC_RDPS_WindU_AGL-10m_RLatLon0.09_PT063H.grib2 2026-04-29 02:58 431K
20260429T00Z_MSC_RDPS_WindU_AGL-120m_RLatLon0.09_PT063H.grib2 2026-04-29 02:58 535K
20260429T00Z_MSC_RDPS_WindU_AGL-40m_RLatLon0.09_PT063H.grib2 2026-04-29 02:58 535K
20260429T00Z_MSC_RDPS_WindU_AGL-80m_RLatLon0.09_PT063H.grib2 2026-04-29 02:58 535K
20260429T00Z_MSC_RDPS_WindU_IsbL-0001_RLatLon0.09_PT063H.grib2 2026-04-29 02:58 295K
20260429T00Z_MSC_RDPS_WindU_IsbL-0005_RLatLon0.09_PT063H.grib2 2026-04-29 02:58 287K
20260429T00Z_MSC_RDPS_WindU_IsbL-0010_RLatLon0.09_PT063H.grib2 2026-04-29 02:58 297K
20260429T00Z_MSC_RDPS_WindU_IsbL-0020_RLatLon0.09_PT063H.grib2 2026-04-29 02:58 315K
20260429T00Z_MSC_RDPS_WindU_IsbL-0030_RLatLon0.09_PT063H.grib2 2026-04-29 02:58 313K
20260429T00Z_MSC_RDPS_WindU_IsbL-0050_RLatLon0.09_PT063H.grib2 2026-04-29 02:58 342K
20260429T00Z_MSC_RDPS_WindU_IsbL-0100_RLatLon0.09_PT063H.grib2 2026-04-29 02:58 427K
20260429T00Z_MSC_RDPS_WindU_IsbL-0150_RLatLon0.09_PT063H.grib2 2026-04-29 02:58 391K
20260429T00Z_MSC_RDPS_WindU_IsbL-0175_RLatLon0.09_PT063H.grib2 2026-04-29 02:58 414K
20260429T00Z_MSC_RDPS_WindU_IsbL-0200_RLatLon0.09_PT063H.grib2 2026-04-29 02:58 334K
20260429T00Z_MSC_RDPS_WindU_IsbL-0225_RLatLon0.09_PT063H.grib2 2026-04-29 02:58 338K
20260429T00Z_MSC_RDPS_WindU_IsbL-0250_RLatLon0.09_PT063H.grib2 2026-04-29 02:58 338K
20260429T00Z_MSC_RDPS_WindU_IsbL-0275_RLatLon0.09_PT063H.grib2 2026-04-29 02:58 352K
20260429T00Z_MSC_RDPS_WindU_IsbL-0300_RLatLon0.09_PT063H.grib2 2026-04-29 02:58 349K
20260429T00Z_MSC_RDPS_WindU_IsbL-0350_RLatLon0.09_PT063H.grib2 2026-04-29 02:58 358K
20260429T00Z_MSC_RDPS_WindU_IsbL-0400_RLatLon0.09_PT063H.grib2 2026-04-29 02:58 360K
20260429T00Z_MSC_RDPS_WindU_IsbL-0450_RLatLon0.09_PT063H.grib2 2026-04-29 02:58 463K
20260429T00Z_MSC_RDPS_WindU_IsbL-0500_RLatLon0.09_PT063H.grib2 2026-04-29 02:58 464K
20260429T00Z_MSC_RDPS_WindU_IsbL-0550_RLatLon0.09_PT063H.grib2 2026-04-29 02:58 465K
20260429T00Z_MSC_RDPS_WindU_IsbL-0600_RLatLon0.09_PT063H.grib2 2026-04-29 02:58 473K
20260429T00Z_MSC_RDPS_WindU_IsbL-0650_RLatLon0.09_PT063H.grib2 2026-04-29 02:58 492K
20260429T00Z_MSC_RDPS_WindU_IsbL-0700_RLatLon0.09_PT063H.grib2 2026-04-29 02:58 498K
20260429T00Z_MSC_RDPS_WindU_IsbL-0750_RLatLon0.09_PT063H.grib2 2026-04-29 02:58 522K
20260429T00Z_MSC_RDPS_WindU_IsbL-0800_RLatLon0.09_PT063H.grib2 2026-04-29 02:58 564K
20260429T00Z_MSC_RDPS_WindU_IsbL-0850_RLatLon0.09_PT063H.grib2 2026-04-29 02:58 618K
20260429T00Z_MSC_RDPS_WindU_IsbL-0875_RLatLon0.09_PT063H.grib2 2026-04-29 02:58 636K
20260429T00Z_MSC_RDPS_WindU_IsbL-0900_RLatLon0.09_PT063H.grib2 2026-04-29 02:58 648K
20260429T00Z_MSC_RDPS_WindU_IsbL-0925_RLatLon0.09_PT063H.grib2 2026-04-29 02:58 655K
20260429T00Z_MSC_RDPS_WindU_IsbL-0950_RLatLon0.09_PT063H.grib2 2026-04-29 02:58 652K
20260429T00Z_MSC_RDPS_WindU_IsbL-0970_RLatLon0.09_PT063H.grib2 2026-04-29 02:58 650K
20260429T00Z_MSC_RDPS_WindU_IsbL-0985_RLatLon0.09_PT063H.grib2 2026-04-29 02:58 788K
20260429T00Z_MSC_RDPS_WindU_IsbL-1000_RLatLon0.09_PT063H.grib2 2026-04-29 02:58 786K
20260429T00Z_MSC_RDPS_WindU_IsbL-1015_RLatLon0.09_PT063H.grib2 2026-04-29 02:58 825K
20260429T00Z_MSC_RDPS_WindV_AGL-10m_RLatLon0.09_PT063H.grib2 2026-04-29 02:58 429K
20260429T00Z_MSC_RDPS_WindV_AGL-120m_RLatLon0.09_PT063H.grib2 2026-04-29 02:58 531K
20260429T00Z_MSC_RDPS_WindV_AGL-40m_RLatLon0.09_PT063H.grib2 2026-04-29 02:58 531K
20260429T00Z_MSC_RDPS_WindV_AGL-80m_RLatLon0.09_PT063H.grib2 2026-04-29 02:58 531K
20260429T00Z_MSC_RDPS_WindV_IsbL-0001_RLatLon0.09_PT063H.grib2 2026-04-29 02:58 245K
20260429T00Z_MSC_RDPS_WindV_IsbL-0005_RLatLon0.09_PT063H.grib2 2026-04-29 02:58 287K
20260429T00Z_MSC_RDPS_WindV_IsbL-0010_RLatLon0.09_PT063H.grib2 2026-04-29 02:58 300K
20260429T00Z_MSC_RDPS_WindV_IsbL-0020_RLatLon0.09_PT063H.grib2 2026-04-29 02:58 319K
20260429T00Z_MSC_RDPS_WindV_IsbL-0030_RLatLon0.09_PT063H.grib2 2026-04-29 02:58 315K
20260429T00Z_MSC_RDPS_WindV_IsbL-0050_RLatLon0.09_PT063H.grib2 2026-04-29 02:58 341K
20260429T00Z_MSC_RDPS_WindV_IsbL-0100_RLatLon0.09_PT063H.grib2 2026-04-29 02:58 423K
20260429T00Z_MSC_RDPS_WindV_IsbL-0150_RLatLon0.09_PT063H.grib2 2026-04-29 02:58 391K
20260429T00Z_MSC_RDPS_WindV_IsbL-0175_RLatLon0.09_PT063H.grib2 2026-04-29 02:58 414K
20260429T00Z_MSC_RDPS_WindV_IsbL-0200_RLatLon0.09_PT063H.grib2 2026-04-29 02:58 333K
20260429T00Z_MSC_RDPS_WindV_IsbL-0225_RLatLon0.09_PT063H.grib2 2026-04-29 02:58 336K
20260429T00Z_MSC_RDPS_WindV_IsbL-0250_RLatLon0.09_PT063H.grib2 2026-04-29 02:58 336K
20260429T00Z_MSC_RDPS_WindV_IsbL-0275_RLatLon0.09_PT063H.grib2 2026-04-29 02:58 349K
20260429T00Z_MSC_RDPS_WindV_IsbL-0300_RLatLon0.09_PT063H.grib2 2026-04-29 02:58 346K
20260429T00Z_MSC_RDPS_WindV_IsbL-0350_RLatLon0.09_PT063H.grib2 2026-04-29 02:58 355K
20260429T00Z_MSC_RDPS_WindV_IsbL-0400_RLatLon0.09_PT063H.grib2 2026-04-29 02:58 460K
20260429T00Z_MSC_RDPS_WindV_IsbL-0450_RLatLon0.09_PT063H.grib2 2026-04-29 02:58 460K
20260429T00Z_MSC_RDPS_WindV_IsbL-0500_RLatLon0.09_PT063H.grib2 2026-04-29 02:58 461K
20260429T00Z_MSC_RDPS_WindV_IsbL-0550_RLatLon0.09_PT063H.grib2 2026-04-29 02:58 461K
20260429T00Z_MSC_RDPS_WindV_IsbL-0600_RLatLon0.09_PT063H.grib2 2026-04-29 02:58 469K
20260429T00Z_MSC_RDPS_WindV_IsbL-0650_RLatLon0.09_PT063H.grib2 2026-04-29 02:58 472K
20260429T00Z_MSC_RDPS_WindV_IsbL-0700_RLatLon0.09_PT063H.grib2 2026-04-29 02:58 492K
20260429T00Z_MSC_RDPS_WindV_IsbL-0750_RLatLon0.09_PT063H.grib2 2026-04-29 02:58 516K
20260429T00Z_MSC_RDPS_WindV_IsbL-0800_RLatLon0.09_PT063H.grib2 2026-04-29 02:58 557K
20260429T00Z_MSC_RDPS_WindV_IsbL-0850_RLatLon0.09_PT063H.grib2 2026-04-29 02:58 748K
20260429T00Z_MSC_RDPS_WindV_IsbL-0875_RLatLon0.09_PT063H.grib2 2026-04-29 02:58 634K
20260429T00Z_MSC_RDPS_WindV_IsbL-0900_RLatLon0.09_PT063H.grib2 2026-04-29 02:58 786K
20260429T00Z_MSC_RDPS_WindV_IsbL-0925_RLatLon0.09_PT063H.grib2 2026-04-29 02:58 794K
20260429T00Z_MSC_RDPS_WindV_IsbL-0950_RLatLon0.09_PT063H.grib2 2026-04-29 02:58 791K
20260429T00Z_MSC_RDPS_WindV_IsbL-0970_RLatLon0.09_PT063H.grib2 2026-04-29 02:58 788K
20260429T00Z_MSC_RDPS_WindV_IsbL-0985_RLatLon0.09_PT063H.grib2 2026-04-29 02:58 784K
20260429T00Z_MSC_RDPS_WindV_IsbL-1000_RLatLon0.09_PT063H.grib2 2026-04-29 02:58 780K
20260429T00Z_MSC_RDPS_WindV_IsbL-1015_RLatLon0.09_PT063H.grib2 2026-04-29 02:58 820K